Regional Weather Roundup
Issued by NWS Charleston, SC

Current Version | Previous Version | Text Only | Print | Product List | Glossary Off
Versions: 1 2 3 4 5 6 7 8 9 10 11 12 13 14 15 16 17 18 19 20 21 22 23 24 25 26 27 28 29 30 31 32 33 34 35 36 37 38 39 40 41 42 43 44 45 46 47 48 49 50

000
ASUS42 KCHS 301026
RWRCHS

REGIONAL WEATHER ROUNDUP
NATIONAL WEATHER SERVICE CHARLESTON SC
500 AM EST FRI JAN 30 2015

NOTE: "FAIR" INDICATES FEW OR NO CLOUDS BELOW 12,000 FEET WITH NO
SIGNIFICANT WEATHER AND/OR OBSTRUCTIONS TO VISIBILITY.

NOT ALL STATIONS ARE QUALITY CONTROLLED BY THE NATIONAL
WEATHER SERVICE. USE DATA WITH CAUTION...ESPECIALLY
DEWPOINT OBSERVATIONS.

SCZ027-030-031-034>040-042>050-301100-
...SOUTHEAST SOUTH CAROLINA...

CITY           SKY/WX    TMP DP  RH WIND       PRES   REMARKS
N CHARLESTON   CLOUDY    53  44  71 SW8       30.03F
WATERFRONT PRK   N/A     54 N/A N/A SW6         N/A
MOUNT PLEASANT CLOUDY    54  45  71 SW6       30.02F
PINOPOLIS        N/A     54  45  71 SW9       29.94F
MONCKS CORNER  CLOUDY    54  43  66 SW8       30.01F
SUMMERVILLE    DRIZZLE   52  45  76 SW5       30.03S
BEAUFORT MCAS  CLOUDY    54  42  64 SW13      30.05F
BEAUFORT ARPT  CLOUDY    54  45  71 SW10G16   30.04F
HILTON HEAD IS NOT AVBL
WALTERBORO     CLOUDY    55  41  58 W8G17     30.03F
ALLENDALE      FAIR      55  46  71 VRB6      30.03S

...SOUTHERN MIDLANDS AND PEE DEE...

CITY           SKY/WX    TMP DP  RH WIND       PRES   REMARKS
GEORGETOWN     NOT AVBL
KINGSTREE      NOT AVBL
ORANGEBURG     CLOUDY    52  38  58 W10       30.01F
BARNWELL       FAIR      54  45  71 W7        30.04S
AIKEN          FAIR      50  39  66 W13       30.07R
MANNING        CLOUDY    54  37  54 SW6       30.00F
COLUMBIA       MOCLDY    51  38  60 W8        30.01R
SUMTER         CLOUDY    52  37  57 W12       29.99R
FLORENCE       CLOUDY    50  39  66 W8        29.99R
MYRTLE BEACH   CLOUDY    55  39  54 SW10      30.00F
N MYRTLE BEACH CLOUDY    51  45  79 SW9       29.98F

$$

GAZ063-065-086>088-099>101-113>116-118-119-134>141-150-301100-
...SOUTHEAST GEORGIA...

CITY           SKY/WX    TMP DP  RH WIND       PRES   REMARKS
SAVANNAH ARPT  CLOUDY    53  40  61 W10       30.07F
HUNTER AAF     MOCLDY    52  41  66 SW9       30.05F
FORT STEWART   MOCLDY    53  45  72 W9        30.07S
STATESBORO     CLOUDY    55  48  77 W10G16    30.06S
SYLVANIA       CLOUDY    55  48  80 W10       30.06S
CLAXTON        FAIR      52  46  82 W7        30.08S

...CSRA...CENTRAL AND FAR SOUTHEAST GEORGIA...

CITY           SKY/WX    TMP DP  RH WIND       PRES   REMARKS
THOMSON        CLEAR     50  42  73 W10       30.12R
AUGUSTA-BUSH   MOCLDY    51  41  68 W10       30.06R
AUGUSTA-DANIEL CLEAR     53  39  59 NW8G17    30.06R
SWAINSBORO     FAIR      54  41  62 W7        30.09R
VIDALIA        CLOUDY    54  48  82 W6        30.09S
EASTMAN        FAIR      54  54 100 W8        30.13R
HAZLEHURST     PTSUNNY   55  50  85 W5        30.09S
ALMA           CLOUDY    51  45  79 W6        30.11S
WAYCROSS       MOCLDY    55  52  90 W5        30.11S
JESUP          CLOUDY    55  50  82 W5        30.10S
BAXLEY         CLOUDY    54  46  76 W7        30.10S
BRUNSWICK      CLOUDY    52  45  76 SW9       30.11S
SAINT SIMONS   CLOUDY    51  45  79 SW8       30.10F

$$

SCZ027-028-034-036>038-045-046-048>050-GAZ119-141-301100-
...LAKE AND SUPPLEMENTAL COASTAL OBSERVATIONS...

STATION/POSITION TIME  TEMP    WIND        PRES    WAVE   SWELL
                       AIR SEA DIR/SP/G            HT/PER HT/PER/DIR
                 (UTC) (F)     (DEG/KT/KT) (MB)    (FT/S) (FT/S/D)
UPR LAKE MARION  NOT AVBL
WINYAH BAY       0900   53     220/  8     1015.0
LAKE MURRAY      1000   52     300/  6/ 14 1016.3R
ACE BASIN NERRS  NOT AVBL
FORT PULASKI     1000   53 52  250/  7/  9 1018.4F
SAPELO ISLAND    1000   51     230/ 10     1019.0S

$$

ANZ835-935-AMZ111-154-330-350-352-354-370-450-454-472-301100-
...C-MAN AND BUOY OBSERVATIONS...

STATION/POSITION TIME  TEMP    WIND        PRES    WAVE   SWELL
                       AIR SEA DIR/SP/G            HT/PER HT/PER/DIR
                 (UTC) (F)     (DEG/KT/KT) (MB)    (FT/S) (FT/S/D)
BUOY 41004       0950   63 68  250/ 23/ 27 1016.5F   6/ 6   2/ 9
BUOY 41008       0950   53 54  230/ 16/ 17 1018.8F   3/10   2/100/10
FOLLY BEACH CMAN 1000   53     230/  9/ 13 1017.4F
CAPERS NEARSHORE 0900   54     240/ 12/ 16   N/A
FRIPP NEARSHORE  0900   54     240/ 14/ 16 1017.5F


STATION/POSITION TIME  TEMP    WIND        PRES    WAVE   SWELL
                       AIR SEA DIR/SP/G            HT/PER HT/PER/DIR
                 (UTC) (F)     (DEG/KT/KT) (MB)    (FT/S) (FT/S/D)
5E ST. MARYS GA  0921      56                N/A     3/10   2/100/13
FRYING PAN BUOY  0950   62 66  240/ 25/ 29 1015.9F   7/ 6   2/ 20/10
BUOY 41025       0950   60 70  260/ 25/ 31 1013.6F   7/ 6   2/ 10/11
CAPE LOOKOUT NC  1000   54     240/ 12/ 16 1014.4F
BUOY 41002       0950   64 71  230/ 17/ 23 1018.8F   4/10   3/ 50/10
BUOY 41010       0920   67 75  230/ 10/ 17 1020.9F
ST AUGUSTINE FL  1000   48     250/  6/  7 1021.6F


$$



USA.gov is the U.S. government's official web portal to all federal, state and local government web resources and services.